Location: Góry Miechowskie
(50.3599°N, 20.1803°E)
Time: 22:07:55
(UTC+00:00)

Transit 2A Rocket - Pass Details

Date: 21 September 2024
Orbit: 582 x 908 km, 66.7° (Epoch: 09 October)

Event Time Altitude Azimuth Distance (km) Brightness Sun altitude
Exits shadow 21:55:00 28° 19° (NNE) 1,657 7.0 -38.8°
Drops below altitude 10° 21:57:50 10° 32° (NNE) 2,588 8.1 -38.9°
Sets 22:00:24 0° 37° (NE) 3,511 8.9 -39.0°
